Flag for Germany Weather past 2 weeks in Osterholz-Scharmbeck, Lower Saxony, Germany

Now
60 °F

Overcast.


Feels Like: 60 °F
Forecast: 54 / 64 °F
Wind: 6 mph from West

Location: Bremen

Current Time: Sep 1, 2015 at 6:29:23 PM

Latest Report: Sep 1, 2015 at 6:00 PM


Visibility: 16 mi

Pressure: 29.88 "Hg

Humidity: 87%

Dew point: 56 °F

Location of Osterholz-ScharmbeckLocation

Historic Weather in Osterholz-Scharmbeck — Graph

°F

Osterholz-Scharmbeck temperature yesterday

Maximum temperature yesterday: 84 °F (at 6:00 PM)
Minimum temperature yesterday: 65 °F (at 2:00 AM)
Average temperature yesterday: 73 °F

Past Weeks' High & Low Weather Summary

 TemperatureHumidityPressure
High84 °F (Aug 31, 6:00 PM)100% (Aug 20, 1:00 AM)30.28 "Hg (Aug 20, 1:00 AM)
Low49 °F (Aug 29, 5:00 AM)33% (Aug 22, 2:00 PM)29.56 "Hg (Aug 24, 7:00 PM)
Average65 °F77%29.98 "Hg
* Reported Aug 17 5:00 PM — Sep 1 5:00 PM, Osterholz-Scharmbeck, Weather by CustomWeather, © 2015

Note: Actual official high and low records may vary slightly from our data, if they occured in-between our weather recording intervals... More about our weather records

Advertising

Osterholz-Scharmbeck weather history for previous 24 hours

 ConditionsComfort  
Time TempWeatherWind HumidityBarometerVisibility
5:00 PM
Tue, Sep 1
62 °FOvercast.8 mph81%29.87 "Hg17 mi
4:00 PM62 °FLight rain. Overcast.5 mph84%29.85 "Hg16 mi
3:00 PM62 °FLight rain. Overcast.5 mph91%29.84 "Hg12 mi
2:00 PM62 °FLight rain. Overcast.5 mph90%29.83 "Hg9 mi
1:00 PM63 °FLight rain. Overcast.7 mph84%29.83 "Hg19 mi
12:00 PM64 °FOvercast.7 mph79%29.80 "Hg25 mi
10:00 AM64 °FOvercast.7 mph86%29.78 "Hg22 mi
9:00 AM63 °FLow clouds.8 mph91%29.77 "Hg11 mi
8:00 AM65 °FOvercast.9 mph88%29.75 "Hg14 mi
7:00 AM67 °FOvercast.6 mph85%29.73 "Hg8 mi
6:00 AM68 °FOvercast.5 mph86%29.73 "Hg7 mi
5:00 AM68 °FOvercast.6 mph89%29.74 "Hg6 mi
4:00 AM68 °FPassing clouds.6 mph91%29.73 "Hg7 mi
3:00 AM69 °FOvercast.3 mph88%29.74 "Hg12 mi
2:00 AM68 °FPassing clouds.3 mph89%29.74 "Hg12 mi
1:00 AM69 °FOvercast.3 mph91%29.74 "Hg16 mi
10:00 PM
Mon, Aug 31
77 °FPassing clouds.9 mph74%29.73 "Hg12 mi
9:00 PM77 °FOvercast.3 mph77%29.69 "Hg11 mi
8:00 PM78 °FOvercast.3 mph81%29.69 "Hg14 mi
7:00 PM82 °FOvercast.3 mph71%29.71 "Hg14 mi
6:00 PM84 °FPartly sunny.5 mph62%29.72 "Hg16 mi
Weather by CustomWeather, © 2015

See weather overviewHow to use our weather pages